Погода в Каменке

Россия / Кабардино-Балкарская Республика     43°32′13″N   43°30′40″E
темп.,
°C
ветер,
м/с
пор.,
м/с
влажн.,
%
обл.,
%
осадки,
мм/ч
давл.,
гПа
погр.,
м
21 апреля, ср
ср2100:00+13в1292100 0.2 1013145
03:00+12в2391100 0.3 1014260
06:00+10всв2386100 0.2 1016450
09:00+12в346785 0.3 10181104
12:00+10в3474100 0.2 1019864
15:00+9в3382100 0.3 1020605
18:00+9в2291100 0.5 1021361
21:00+8в1294100 0.9 1022260
22 апреля, чт
чт2200:00+8в1194100 0.1 1022140
03:00+8в1193100 0.1 102172
06:00+8вюв1194100 0.0 1022102
09:00+9в228679 0.1 1022427
12:00+10всв3384100 0.1 1022687
15:00+10всв2382100 0.3 1022592
18:00+9вюв1287100 0.2 1022107
21:00+8вюв1292100 0.3 1022172
23 апреля, пт
пт2300:00+8св0098100 2.0 102191
03:00+7з1295100 8.0 102289
06:00+7сз1395100 1.6 1023209
09:00+9ссз1376100 2.4 1023607
12:00+11ю127069 1.0 1023986
15:00+14ссз235617 1.4 10221263
18:00+12в236966 0.1 102283
21:00+9ююз1178100 0.1 102112
24 апреля, сб
сб2400:00+8юз2278100 0.0 101923
03:00+8юз2273100 0.0 101926
06:00+8зюз1170100 0.0 102017
09:00+13в226096 0.0 1019664
12:00+16всв435299 0.0 10171346
15:00+15всв3257100 0.0 10171233
18:00+13всв1171100 0.0 101913
21:00+12з117393 0.0 101914
25 апреля, вс
вс2500:00+11ссз1178100 0.0 102049
03:00+10ссз1181100 0.0 102053
06:00+9всв1290100 0.0 1021277
09:00+8всв1193100 0.3 1020272
12:00+9св1193100 0.3 1019334
15:00+8ссв2298100 0.6 1018293
18:00+8св1198100 0.1 1018253
21:00+8всв1198100 0.1 1017123